{"data":{"norad_id":63292,"epoch":"2026-05-25T03:52:47.803296Z","epoch_age_seconds":51254,"freshness":"FRESH","line1":"1 63292U 25055B   26145.16166439  .00005552  00000+0  32867-3 0  9998","line2":"2 63292  97.6474 285.9914 0035757 230.0147 129.7942 15.11304753 65604","mean_motion":15.11304753,"eccentricity":0.0035757,"inclination_deg":97.6474,"raan_deg":285.9914,"arg_perigee_deg":230.0147,"mean_anomaly_deg":129.7942,"bstar":0.00032867,"rev_number":6560,"period_min":95.281907711965,"perigee_km":507.51050276596,"apogee_km":556.92922885613,"semimajor_km":6910.356865811,"source":"CELESTRAK","updated_at":"2026-05-25T13:38:03.619656Z"}}